User: anonymous   Login
Location: Caltech
(34.1382°N, 118.1253°W)
Time: 14:10:55
(UTC-07:00)
Language:

Meteor 2-4 Rocket - Orbit

View from above orbital plane
View from above orbital plane
View from above satellite
View from above satellite

Ground track
Ground track

The orbit data is extracted from the following two-line orbital elements,

1 11289U 79021B   14297.87076120  .00000117  00000-0  55658-4 0  7512
2 11289 081.2494 026.8323 0076776 095.5918 041.2321 14.11454257834513
Epoch (UTC): 24 October 2014 20:53:53
Eccentricity: 0.0076776
inclination: 81.2494°
perigee height: 799 km
apogee height: 910 km
right ascension of ascending node: 26.8323°
argument of perigee: 95.5918°
revolutions per day: 14.11454257
mean anomaly at epoch: 41.2321°
orbit number at epoch: 83451

The dashed part of the orbit path shows where the satellite is in the earth's shadow,  

DLR